Time,TemperatureF,DewpointF,PressureIn,WindDirection,WindDirectionDegrees,WindSpeedMPH,WindSpeedGustMPH,Humidity,HourlyPrecipIn,Conditions,Clouds,dailyrainin,SoftwareType,DateUTC
2013-01-31 00:14:00,39.9,34.0,30.32,SSE,150,0.0,1.0,78,0.00,,,0.00,weatherlink.com 1.10,2013-01-31 08:14:00,
2013-01-31 00:29:00,39.8,33.0,30.31,SSE,166,0.0,2.0,78,0.00,,,0.00,weatherlink.com 1.10,2013-01-31 08:29:00,
2013-01-31 00:44:00,40.3,33.0,30.32,SSE,152,0.0,1.0,76,0.00,,,0.00,weatherlink.com 1.10,2013-01-31 08:44:00,
2013-01-31 00:59:00,40.2,33.0,30.31,SSE,159,0.0,1.0,76,0.00,,,0.00,weatherlink.com 1.10,2013-01-31 08:59:00,
2013-01-31 01:14:00,39.8,33.0,30.31,SSE,152,2.0,2.0,77,0.00,,,0.00,weatherlink.com 1.10,2013-01-31 09:14:00,
2013-01-31 01:29:00,39.9,33.0,30.32,SSE,154,0.0,2.0,77,0.00,,,0.00,weatherlink.com 1.10,2013-01-31 09:29:00,
2013-01-31 01:44:00,39.9,33.0,30.32,SSE,156,0.0,1.0,76,0.00,,,0.00,weatherlink.com 1.10,2013-01-31 09:44:00,
2013-01-31 01:59:00,39.7,32.0,30.31,SE,134,0.0,2.0,75,0.00,,,0.00,weatherlink.com 1.10,2013-01-31 09:59:00,
2013-01-31 02:14:00,39.7,32.0,30.31,SSE,160,0.0,3.0,75,0.00,,,0.00,weatherlink.com 1.10,2013-01-31 10:14:00,
2013-01-31 02:29:00,39.8,32.0,30.31,SSE,159,0.0,2.0,75,0.00,,,0.00,weatherlink.com 1.10,2013-01-31 10:29:00,
2013-01-31 02:44:00,39.5,33.0,30.30,SSE,158,0.0,0.0,77,0.00,,,0.00,weatherlink.com 1.10,2013-01-31 10:44:00,
2013-01-31 02:59:00,39.4,33.0,30.29,SSE,150,0.0,2.0,77,0.00,,,0.00,weatherlink.com 1.10,2013-01-31 10:59:00,
2013-01-31 03:14:00,39.5,33.0,30.29,SSE,152,0.0,2.0,76,0.00,,,0.00,weatherlink.com 1.10,2013-01-31 11:14:00,
2013-01-31 03:30:00,40.0,33.0,30.28,SSE,155,0.0,3.0,75,0.00,,,0.00,weatherlink.com 1.10,2013-01-31 11:30:00,
2013-01-31 03:45:00,39.5,33.0,30.28,SSE,147,0.0,1.0,76,0.00,,,0.00,weatherlink.com 1.10,2013-01-31 11:45:00,
2013-01-31 04:00:00,39.4,32.0,30.28,SSE,156,0.0,4.0,76,0.00,,,0.00,weatherlink.com 1.10,2013-01-31 12:00:00,
2013-01-31 04:15:00,39.8,32.0,30.28,SSE,153,1.0,2.0,74,0.00,,,0.00,weatherlink.com 1.10,2013-01-31 12:15:00,
2013-01-31 04:30:00,40.0,32.0,30.28,SSE,152,1.0,4.0,74,0.00,,,0.00,weatherlink.com 1.10,2013-01-31 12:30:00,
2013-01-31 04:45:00,39.9,33.0,30.28,SSE,155,0.0,3.0,75,0.00,,,0.00,weatherlink.com 1.10,2013-01-31 12:45:00,
2013-01-31 05:00:00,40.0,32.0,30.28,SE,143,2.0,4.0,74,0.00,,,0.00,weatherlink.com 1.10,2013-01-31 13:00:00,
2013-01-31 05:15:00,39.9,32.0,30.28,SE,139,0.0,2.0,74,0.00,,,0.00,weatherlink.com 1.10,2013-01-31 13:15:00,
2013-01-31 05:30:00,39.6,33.0,30.29,SE,139,2.0,3.0,76,0.00,,,0.00,weatherlink.com 1.10,2013-01-31 13:30:00,
2013-01-31 05:45:00,40.0,32.0,30.28,SE,139,1.0,2.0,74,0.00,,,0.00,weatherlink.com 1.10,2013-01-31 13:45:00,
2013-01-31 06:00:00,39.7,32.0,30.28,SE,144,0.0,2.0,75,0.00,,,0.00,weatherlink.com 1.10,2013-01-31 14:00:00,
2013-01-31 06:15:00,39.8,32.0,30.29,SSE,154,0.0,2.0,74,0.00,,,0.00,weatherlink.com 1.10,2013-01-31 14:15:00,
2013-01-31 06:30:00,39.7,32.0,30.28,SSE,163,2.0,3.0,75,0.00,,,0.00,weatherlink.com 1.10,2013-01-31 14:30:00,
2013-01-31 06:45:00,39.9,32.0,30.28,SE,144,0.0,2.0,74,0.00,,,0.00,weatherlink.com 1.10,2013-01-31 14:45:00,
2013-01-31 07:00:00,40.0,32.0,30.29,SSE,152,2.0,2.0,74,0.00,,,0.00,weatherlink.com 1.10,2013-01-31 15:00:00,
2013-01-31 07:15:00,40.2,33.0,30.29,SE,139,2.0,3.0,75,0.00,,,0.00,weatherlink.com 1.10,2013-01-31 15:15:00,
2013-01-31 07:30:00,40.3,33.0,30.29,SE,125,0.0,3.0,76,0.00,,,0.00,weatherlink.com 1.10,2013-01-31 15:30:00,
2013-01-31 07:45:00,40.4,33.0,30.30,SSE,162,0.0,2.0,74,0.00,,,0.00,weatherlink.com 1.10,2013-01-31 15:45:00,
2013-01-31 08:00:00,40.6,33.0,30.30,SSE,155,0.0,2.0,75,0.00,,,0.00,weatherlink.com 1.10,2013-01-31 16:00:00,
2013-01-31 08:15:00,40.6,33.0,30.30,SSE,148,2.0,2.0,75,0.00,,,0.00,weatherlink.com 1.10,2013-01-31 16:15:00,
2013-01-31 08:30:00,40.7,33.0,30.30,SSE,148,2.0,3.0,75,0.00,,,0.00,weatherlink.com 1.10,2013-01-31 16:30:00,
2013-01-31 08:45:00,41.2,34.0,30.31,SE,146,0.0,3.0,74,0.00,,,0.00,weatherlink.com 1.10,2013-01-31 16:45:00,
2013-01-31 09:00:00,41.1,34.0,30.32,SSE,148,0.0,0.0,76,0.00,,,0.00,weatherlink.com 1.10,2013-01-31 17:00:00,
2013-01-31 09:15:00,41.0,34.0,30.32,SSE,148,2.0,2.0,77,0.00,,,0.00,weatherlink.com 1.10,2013-01-31 17:15:00,
2013-01-31 09:30:00,41.3,35.0,30.33,SSE,156,2.0,3.0,77,0.00,,,0.00,weatherlink.com 1.10,2013-01-31 17:30:00,
2013-01-31 09:45:00,41.0,35.0,30.34,SSE,160,0.0,0.0,79,0.00,,,0.00,weatherlink.com 1.10,2013-01-31 17:45:00,
2013-01-31 10:00:00,41.1,35.0,30.34,SSE,161,0.0,0.0,79,0.00,,,0.00,weatherlink.com 1.10,2013-01-31 18:00:00,
2013-01-31 10:15:00,41.9,36.0,30.34,SSE,154,0.0,0.0,78,0.00,,,0.00,weatherlink.com 1.10,2013-01-31 18:15:00,
2013-01-31 10:30:00,43.9,36.0,30.33,SSE,152,0.0,0.0,73,0.00,,,0.00,weatherlink.com 1.10,2013-01-31 18:30:00,
2013-01-31 10:45:00,46.0,36.0,30.33,SSE,155,0.0,0.0,67,0.00,,,0.00,weatherlink.com 1.10,2013-01-31 18:45:00,
2013-01-31 11:00:00,48.1,37.0,30.32,SSW,194,0.0,0.0,66,0.00,,,0.00,weatherlink.com 1.10,2013-01-31 19:00:00,
2013-01-31 11:15:00,49.7,36.0,30.32,SSE,156,0.0,0.0,60,0.00,,,0.00,weatherlink.com 1.10,2013-01-31 19:15:00,
2013-01-31 11:30:00,50.6,36.0,30.32,SSE,151,0.0,0.0,58,0.00,,,0.00,weatherlink.com 1.10,2013-01-31 19:30:00,
2013-01-31 11:46:00,51.8,37.0,30.31,SSE,160,0.0,1.0,57,0.00,,,0.00,weatherlink.com 1.10,2013-01-31 19:46:00,
2013-01-31 12:01:00,52.6,37.0,30.30,East,91,0.0,0.0,55,0.00,,,0.00,weatherlink.com 1.10,2013-01-31 20:01:00,
2013-01-31 12:16:00,54.8,39.0,30.29,South,173,0.0,2.0,56,0.00,,,0.00,weatherlink.com 1.10,2013-01-31 20:16:00,
2013-01-31 12:31:00,55.9,38.0,30.27,ENE,63,0.0,3.0,51,0.00,,,0.00,weatherlink.com 1.10,2013-01-31 20:31:00,
2013-01-31 12:46:00,56.3,36.0,30.27,NE,45,0.0,0.0,47,0.00,,,0.00,weatherlink.com 1.10,2013-01-31 20:46:00,
2013-01-31 13:01:00,56.7,35.0,30.26,East,86,0.0,2.0,44,0.00,,,0.00,weatherlink.com 1.10,2013-01-31 21:01:00,
2013-01-31 13:16:00,55.8,39.0,30.25,ESE,120,0.0,0.0,53,0.00,,,0.00,weatherlink.com 1.10,2013-01-31 21:16:00,
2013-01-31 13:31:00,56.1,38.0,30.24,South,187,0.0,3.0,51,0.00,,,0.00,weatherlink.com 1.10,2013-01-31 21:31:00,
2013-01-31 13:46:00,55.8,37.0,30.24,SW,217,0.0,1.0,50,0.00,,,0.00,weatherlink.com 1.10,2013-01-31 21:46:00,
2013-01-31 14:01:00,53.7,40.0,30.23,SSW,201,0.0,0.0,61,0.00,,,0.00,weatherlink.com 1.10,2013-01-31 22:01:00,
2013-01-31 14:16:00,52.9,40.0,30.23,SSW,193,1.0,2.0,61,0.00,,,0.00,weatherlink.com 1.10,2013-01-31 22:16:00,
2013-01-31 14:31:00,51.1,40.0,30.23,South,190,1.0,3.0,65,0.00,,,0.00,weatherlink.com 1.10,2013-01-31 22:31:00,
2013-01-31 14:46:00,49.2,39.0,30.23,South,176,1.0,3.0,68,0.00,,,0.00,weatherlink.com 1.10,2013-01-31 22:46:00,
2013-01-31 15:01:00,47.7,39.0,30.22,South,170,0.0,3.0,72,0.00,,,0.00,weatherlink.com 1.10,2013-01-31 23:01:00,
2013-01-31 15:16:00,46.5,39.0,30.23,SSE,163,0.0,2.0,75,0.00,,,0.00,weatherlink.com 1.10,2013-01-31 23:16:00,
2013-01-31 15:31:00,46.4,39.0,30.22,SE,143,3.0,3.0,74,0.00,,,0.00,weatherlink.com 1.10,2013-01-31 23:31:00,
2013-01-31 15:46:00,46.2,38.0,30.22,SSE,163,0.0,0.0,74,0.00,,,0.00,weatherlink.com 1.10,2013-01-31 23:46:00,
2013-01-31 16:01:00,45.7,39.0,30.23,SSE,156,2.0,2.0,76,0.00,,,0.00,weatherlink.com 1.10,2013-02-01 00:01:00,
2013-01-31 16:16:00,46.2,38.0,30.22,SSE,155,1.0,3.0,73,0.00,,,0.00,weatherlink.com 1.10,2013-02-01 00:16:00,
2013-01-31 16:31:00,45.9,38.0,30.23,SSE,148,1.0,3.0,74,0.00,,,0.00,weatherlink.com 1.10,2013-02-01 00:31:00,
2013-01-31 16:46:00,45.4,38.0,30.23,SE,145,0.0,3.0,75,0.00,,,0.00,weatherlink.com 1.10,2013-02-01 00:46:00,
2013-01-31 17:01:00,44.7,38.0,30.23,SSE,161,0.0,2.0,76,0.00,,,0.00,weatherlink.com 1.10,2013-02-01 01:01:00,
2013-01-31 17:16:00,44.6,37.0,30.24,SE,145,0.0,2.0,76,0.00,,,0.00,weatherlink.com 1.10,2013-02-01 01:16:00,
2013-01-31 17:31:00,44.5,37.0,30.24,SSE,148,1.0,3.0,76,0.00,,,0.00,weatherlink.com 1.10,2013-02-01 01:31:00,
2013-01-31 17:46:00,44.3,37.0,30.25,SSE,158,0.0,0.0,75,0.00,,,0.00,weatherlink.com 1.10,2013-02-01 01:46:00,
2013-01-31 18:01:00,43.7,37.0,30.25,SSE,158,0.0,2.0,76,0.00,,,0.00,weatherlink.com 1.10,2013-02-01 02:01:00,
2013-01-31 18:16:00,44.0,37.0,30.25,SE,138,0.0,3.0,75,0.00,,,0.00,weatherlink.com 1.10,2013-02-01 02:16:00,
2013-01-31 18:31:00,43.8,36.0,30.25,SSE,155,0.0,2.0,74,0.00,,,0.00,weatherlink.com 1.10,2013-02-01 02:31:00,
2013-01-31 18:46:00,43.4,36.0,30.24,SSE,161,1.0,3.0,76,0.00,,,0.00,weatherlink.com 1.10,2013-02-01 02:46:00,
2013-01-31 19:01:00,43.1,36.0,30.24,SSE,151,1.0,2.0,77,0.00,,,0.00,weatherlink.com 1.10,2013-02-01 03:01:00,
2013-01-31 19:16:00,43.1,35.0,30.25,SSE,148,0.0,1.0,73,0.00,,,0.00,weatherlink.com 1.10,2013-02-01 03:16:00,
2013-01-31 19:31:00,43.0,36.0,30.25,SSE,154,0.0,0.0,76,0.00,,,0.00,weatherlink.com 1.10,2013-02-01 03:31:00,
2013-01-31 19:46:00,42.9,36.0,30.25,SSE,162,2.0,3.0,75,0.00,,,0.00,weatherlink.com 1.10,2013-02-01 03:46:00,
2013-01-31 20:01:00,43.3,36.0,30.25,SSE,151,0.0,0.0,74,0.00,,,0.00,weatherlink.com 1.10,2013-02-01 04:01:00,
2013-01-31 20:16:00,43.2,36.0,30.25,SSE,160,0.0,2.0,75,0.00,,,0.00,weatherlink.com 1.10,2013-02-01 04:16:00,
2013-01-31 20:31:00,42.8,35.0,30.25,SSE,155,0.0,0.0,75,0.00,,,0.00,weatherlink.com 1.10,2013-02-01 04:31:00,
2013-01-31 20:46:00,42.9,36.0,30.25,SSE,154,1.0,3.0,75,0.00,,,0.00,weatherlink.com 1.10,2013-02-01 04:46:00,
2013-01-31 21:16:00,42.7,35.0,30.25,SE,135,0.0,2.0,74,0.00,,,0.00,weatherlink.com 1.10,2013-02-01 05:16:00,
2013-01-31 21:31:00,42.8,35.0,30.25,SE,136,0.0,3.0,73,0.00,,,0.00,weatherlink.com 1.10,2013-02-01 05:31:00,
2013-01-31 21:46:00,43.0,34.0,30.25,SE,139,2.0,3.0,71,0.00,,,0.00,weatherlink.com 1.10,2013-02-01 05:46:00,
2013-01-31 22:01:00,42.8,34.0,30.25,SSE,151,0.0,3.0,72,0.00,,,0.00,weatherlink.com 1.10,2013-02-01 06:01:00,
2013-01-31 22:16:00,42.9,34.0,30.25,SSE,155,0.0,2.0,71,0.00,,,0.00,weatherlink.com 1.10,2013-02-01 06:16:00,
2013-01-31 22:31:00,43.0,33.0,30.24,SE,145,2.0,4.0,69,0.00,,,0.00,weatherlink.com 1.10,2013-02-01 06:31:00,
2013-01-31 22:46:00,42.7,34.0,30.24,SE,145,2.0,3.0,70,0.00,,,0.00,weatherlink.com 1.10,2013-02-01 06:46:00,
2013-01-31 23:01:00,42.7,34.0,30.24,SSE,158,0.0,2.0,71,0.00,,,0.00,weatherlink.com 1.10,2013-02-01 07:01:00,
2013-01-31 23:16:00,43.0,33.0,30.24,SE,140,2.0,3.0,69,0.00,,,0.00,weatherlink.com 1.10,2013-02-01 07:16:00,
2013-01-31 23:31:00,42.6,34.0,30.23,SSE,162,0.0,3.0,72,0.00,,,0.00,weatherlink.com 1.10,2013-02-01 07:31:00,
2013-01-31 23:46:00,42.7,34.0,30.23,SSE,148,1.0,-999.0,70,-99.99,,,0.00,weatherlink.com 1.10,2013-02-01 07:46:00,